1323820825598,112.217
1323820885598,112.258
1323820945598,112.518
1323821005598,112.218
1323821065598,112.724
1323821125598,112.483
1323821185598,112.393
1323821245598,112.272
1323821305598,112.959
1323821365598,112.808
1323821425598,112.878
1323821485598,112.319
1323821545598,112.342
1323821605598,112.433
1323821665598,112.807
1323821725598,111.991
1323821785598,112.635
1323821845598,112.590
1323821905598,112.691
1323821965598,111.714
1323822025598,111.936
1323822085598,112.211
1323822145598,112.569
1323822205598,112.370
1323822265598,112.582
1323822325598,112.560
1323822385598,112.306
1323822445598,112.648
1323822505598,112.637
1323822565598,112.060
1323822625598,111.677
1323822685598,112.437
1323822745598,112.458
1323822805598,112.405
1323822865598,112.525
1323822925598,112.401
1323822985598,111.932
1323823045598,112.387
1323823105598,112.202
1323823165598,112.705
1323823225598,112.417
1323823285598,112.800
1323823345598,112.232
1323823405598,112.132
1323823465598,112.601
1323823525598,112.259
1323823585598,112.344
1323823645598,111.860
1323823705598,112.773
1323823765598,112.347
1323823825598,111.948
1323823885598,111.924
1323823945598,112.104
1323824005598,111.700
1323824065598,112.037
1323824125598,112.530
1323824185598,111.829
1323824245598,112.139
1323824305598,112.135
1323824365598,111.421
1323824425608,112.019
1323824485608,112.032
1323824545608,111.814
1323824605608,111.948
1323824665608,112.003
1323824725608,111.869
1323824785608,111.808
1323824845608,111.253
1323824905608,112.339
1323824965608,111.644
1323825025608,111.583
1323825085608,112.112
1323825145608,111.898
1323825205608,111.727
1323825265608,111.659
1323825325608,111.908
1323825385608,111.437
1323825445608,111.883
1323825505608,111.622
1323825565608,111.802
1323825625608,111.956
1323825685608,111.319
1323825745608,111.922
1323825805608,112.339
1323825865608,111.776
1323825925608,111.610
1323825985608,112.501
1323826045608,112.161
1323826105608,112.183
1323826165608,112.289
1323826225608,111.762
1323826285608,111.401
1323826345608,111.997
1323826405608,112.381
1323826465608,111.956
1323826525608,112.224
1323826585608,111.725
1323826645608,112.147
1323826705608,111.826
1323826765608,111.599
1323826825608,111.948
1323826885608,111.716
1323826945608,111.724
1323827005608,111.871
1323827065608,111.387
1323827125608,112.028
1323827185608,111.821
1323827245608,111.858
1323827305608,112.161
1323827365608,112.070
1323827425608,112.111
1323827485608,111.772
1323827545608,111.422
1323827605608,111.939
1323827665608,111.477
1323827725608,111.532
1323827785608,111.603
1323827845608,112.338
1323827905608,111.476
1323827965608,111.702
1323828025618,111.389
1323828085618,111.815
1323828145618,111.436
1323828205618,111.262
1323828265618,111.337
1323828325618,111.257
1323828385618,111.129
1323828445618,111.492
1323828505618,111.340
1323828565618,111.377
1323828625618,111.578
1323828685618,111.057
1323828745618,111.359
1323828805618,111.221
1323828865618,111.337
1323828925618,110.548
1323828985618,110.881
1323829045618,111.135
1323829105618,111.430
1323829165618,110.985
1323829225618,111.142
1323829285618,111.749
1323829345618,111.327
1323829405618,110.872
1323829465618,111.218
1323829525618,111.120
1323829585618,110.754
1323829645618,110.980
1323829705618,111.340
1323829765618,111.217
1323829825618,110.968
1323829885618,110.710
1323829945618,110.960
1323830005618,110.389
1323830065618,111.108
1323830125618,111.299
1323830185618,111.019
1323830245618,111.041
1323830305618,111.026
1323830365618,111.297
1323830425618,110.948
1323830485618,110.420
1323830545618,111.049
1323830605618,110.734
1323830665618,111.258
1323830725618,111.285
1323830785618,111.423
1323830845618,111.110
1323830905618,111.366
1323830965618,111.494
1323831025618,111.174
1323831085618,111.512
1323831145618,111.396
1323831205618,111.904
1323831265618,111.090
1323831325618,111.255
1323831385618,111.197
1323831445618,111.289
1323831505618,111.592
1323831565618,111.527
1323831625628,111.312
1323831685628,110.955
1323831745628,111.993
1323831805628,111.395
1323831865628,111.917
1323831925628,111.089
1323831985628,111.446
1323832045628,111.523
1323832105628,111.451
1323832165628,111.297
1323832225628,111.261
1323832285628,111.466
1323832345628,111.447
1323832405628,111.263
1323832465628,111.947
1323832525628,111.612
1323832585628,111.120
1323832645628,111.388
1323832705628,111.479
1323832765628,111.260
1323832825628,111.480
1323832885628,111.631
1323832945628,111.783
1323833005628,110.891
1323833065628,111.193
1323833125628,111.048
1323833185628,111.985
1323833245628,111.289
1323833305628,111.608
1323833365628,111.681
1323833425628,111.821
1323833485628,111.091
1323833545628,111.574
1323833605628,112.135
1323833665628,111.983
1323833725628,111.672
1323833785628,111.931
1323833845628,111.244
1323833905628,111.290
1323833965628,112.166
1323834025628,112.236
1323834085628,111.406
1323834145628,112.378
1323834205628,111.870
1323834265628,112.067
1323834325628,111.452
1323834385628,111.537
1323834445628,111.969
1323834505628,111.550
1323834565628,112.134
1323834625628,112.236
1323834685628,111.934
1323834745628,111.872
1323834805628,111.543
1323834865628,111.955
1323834925628,112.149
1323834985628,112.281
1323835045628,112.012
1323835105628,112.195
1323835165628,112.193
1323835225638,112.258
1323835285638,112.431
1323835345638,111.925
1323835405638,111.850
1323835465638,111.603
1323835525638,112.086
1323835585638,112.273
1323835645638,111.625
1323835705638,112.251
1323835765638,111.931
1323835825638,111.538
1323835885638,111.852
1323835945638,111.888
1323836005638,112.666
1323836065638,112.163
1323836125638,112.574
1323836185638,111.979
1323836245638,111.657
1323836305638,111.605
1323836365638,112.060
1323836425638,111.947
1323836485638,111.752
1323836545638,111.569
1323836605638,111.027
1323836665638,111.460
1323836725638,111.208
1323836785638,111.659
1323836845638,111.925
1323836905638,111.655
1323836965638,111.677
1323837025638,111.774
1323837085638,111.200
1323837145638,111.852
1323837205638,111.392
1323837265638,112.275
1323837325638,111.069
1323837385638,111.359
1323837445638,111.543
1323837505638,111.843
1323837565638,111.633
1323837625638,111.278
1323837685638,111.196
1323837745638,111.319
1323837805638,111.288
1323837865638,111.405
1323837925638,111.258
1323837985638,111.055
1323838045638,111.592
1323838105638,111.428
1323838165638,111.031
1323838225638,111.164
1323838285638,111.280
1323838345638,111.373
1323838405638,110.708
1323838465638,111.638
1323838525638,111.299
1323838585638,110.987
1323838645638,110.598
1323838705638,110.389
1323838765638,110.794
1323838825648,110.906
1323838885648,111.249
1323838945648,110.967
1323839005648,110.329
1323839065648,110.672
1323839125648,110.139
1323839185648,110.672
1323839245648,110.614
1323839305648,110.932
1323839365648,110.885
1323839425648,110.669
1323839485648,110.792
1323840025648,110.408
1323840085648,109.842
1323840145648,110.379
1323840205648,110.208
1323840265648,110.396
1323840325648,110.299
1323840385648,110.352
1323840445648,110.472
1323840505648,110.328
1323840565648,110.296
1323840625648,110.275
1323840685648,110.267
1323840745648,110.677
1323840805648,110.366
1323840865648,109.897
1323840925648,110.212
1323840985648,110.105
1323841045648,110.602
1323841105648,110.701
1323841165648,110.498
1323841225648,110.424
1323841285648,110.210
1323841345648,110.930
1323841405648,110.354
1323841465648,110.244
1323841525648,109.889
1323841585648,110.319
1323841645648,110.193
1323841705648,110.183
1323841765648,109.806
1323841825648,110.155
1323841885648,110.602
1323841945648,109.818
1323842005648,110.302
1323842065648,110.286
1323842125648,110.343
1323842185648,110.112
1323842245648,110.749
1323842305648,110.095
1323842365648,109.980
1323842425659,109.626
1323842485659,110.074
1323842545658,109.514
1323842605659,109.908
1323842665659,110.687
1323842725659,110.709
1323842785659,110.279
1323842845659,109.790
1323842905659,109.832
1323842965659,110.246
1323843025659,110.277
1323843085659,109.999
1323843145659,109.557
1323843205659,110.215
1323843265659,109.939
1323843325659,110.283
1323843385659,110.212
1323843445659,109.883
1323843505659,110.102
1323843565659,109.709
1323843625659,110.342
1323843685659,110.072
1323843745659,110.090
1323843805659,110.564
1323843865658,110.254
1323843925658,110.125
1323843985659,110.623
1323844045659,109.922
1323844105659,109.786
1323844165659,110.468
1323844225659,110.345
1323844285659,110.285
1323844345659,110.295
1323844405659,110.425
1323844465659,110.672
1323844525659,110.106
1323844585659,110.246
1323844645659,110.760
1323844705659,110.002
1323844765659,110.327
1323844825659,110.502
1323844885659,110.351
1323844945659,110.452
1323845005659,110.470
1323845065659,110.225
1323845125659,110.259
1323845185659,110.498
1323845245658,110.480
1323845305659,110.575
1323845365659,110.617
1323845425659,111.246
1323845485659,110.702
1323845545659,110.695
1323845605659,110.403
1323845665659,110.830
1323845725659,110.773
1323845785659,111.027
1323845845659,110.860
1323845905659,111.246
1323845965659,111.281
1323846025669,111.027
1323846085669,110.779
1323846145669,111.060
1323846205669,110.977
1323846265669,110.758
1323846325669,110.325
1323846385669,110.816
1323846445669,110.916
1323846505669,110.521
1323846565669,111.159
1323846625669,110.406
1323846685669,110.944
1323846745669,110.903
1323846805669,110.982
1323846865669,110.626
1323846925669,110.743
1323846985669,110.695
1323847045669,110.691
1323847105669,110.878
1323847165669,110.260
1323847225669,110.861
1323847285669,110.713
1323847345669,110.841
1323847405669,110.304
1323847465669,110.452
1323847525669,110.555
1323847585669,110.940
1323847645669,110.720
1323847705669,110.602
1323847765669,110.758
1323847825669,110.678
1323847885669,110.923
1323847945669,111.239
1323848005669,110.083
1323848065669,110.274
1323848125669,110.876
1323848185669,110.619
1323848245669,110.647
1323848305669,110.756
1323848365669,111.133
1323848425669,110.807
1323848485669,110.540
1323848545669,110.706
1323848605669,110.645
1323848665669,110.567
1323848725669,110.707
1323848785669,111.111
1323848845669,111.337
1323848905669,110.584
1323848965669,110.504
1323849025669,110.989
1323849085669,110.257
1323849145669,110.826
1323849205669,110.881
1323849265669,111.012
1323849325669,110.911
1323849385669,110.471
1323849445669,111.272
1323849505669,110.725
1323849565669,110.836
1323849625680,110.228
1323849685680,110.514
1323849745680,110.518
1323849805680,110.475
1323849865680,110.943
1323849925680,110.666
1323849985680,110.544
1323850045680,110.931
1323850105680,111.055
1323850165680,111.014
1323850225680,111.116
1323850285680,111.048
1323850345680,111.503
1323850405680,111.190
1323850465680,110.764
1323850525680,110.795
1323850585680,111.309
1323850645680,111.636
1323850705680,111.642
1323850765680,111.720
1323850825680,111.166
1323850885680,111.381
1323850945680,111.622
1323851005680,111.656
1323851065680,111.708
1323851125680,111.142
1323851185680,111.266
1323851245680,112.150
1323851305680,111.550
1323851365680,111.729
1323851425680,112.232
1323851485680,111.228
1323851545680,111.545
1323851605680,111.840
1323851665680,111.998
1323851725680,111.504
1323851785680,111.330
1323851845680,112.009
1323851905680,112.239
1323851965680,111.792
1323852025680,112.302
1323852085680,112.073
1323852145680,111.808
1323852205680,111.757
1323852265680,112.057
1323852325680,112.259
1323852385680,112.231
1323852445680,112.067
1323852505680,112.456
1323852565680,111.948
1323852625680,111.971
1323852685680,112.190
1323852745680,112.658
1323852805680,112.613
1323852865680,112.663
1323852925680,112.823
1323852985680,112.217
1323853045680,112.398
1323853105680,112.434
1323853165680,112.412
1323853225691,112.066
1323853285691,112.150
1323853345691,112.314
1323853405691,112.947
1323853465691,112.262
1323853525691,112.824
1323853585691,112.715
1323853645691,112.706
1323853705691,112.603
1323853765691,112.691
1323853825691,113.168
1323853885691,113.209
1323853945691,113.071
1323854005691,112.496
1323854065691,113.133
1323854125691,113.445
1323854185691,113.121
1323854245691,112.707
1323854305691,113.564
1323854365691,113.226
1323854425691,113.056
1323854485691,113.257
1323854545691,112.843
1323854605691,112.612
1323854665691,112.621
1323854725691,112.734
1323854785691,113.181
1323854845691,112.972
1323854905691,112.470
1323854965691,112.729
1323855025691,112.534
1323855085691,112.308
1323855145691,112.573
1323855205691,112.349
1323855265691,112.737
1323855325691,112.638
1323855385691,112.030
1323855445691,112.492
1323855505691,112.167
1323855565691,112.238
1323855625691,112.041
1323855685691,112.134
1323855745691,112.077
1323855805691,112.353
1323855865691,112.703
1323855925691,112.740
1323855985691,112.599
1323856045691,112.385
1323856105691,112.462
1323856165691,112.640
1323856225691,112.297
1323856285691,112.443
1323856345691,112.474
1323856405691,111.941
1323856465691,112.654
1323856525691,112.360
1323856585691,112.452
1323856645691,112.311
1323856705691,112.277
1323856765691,112.451
1323856825702,112.130
1323856885702,112.233
1323856945702,111.856
1323857005702,112.495
1323857065702,111.822
1323857125702,112.040
1323857185702,111.690
1323857245702,111.453
1323857305702,111.816
1323857365702,112.173
1323857425702,112.404
1323857485702,112.186
1323857545702,111.853
1323857605702,112.071
1323857665702,111.454
1323857725702,111.854
1323857785702,111.685
1323857845702,111.526
1323857905702,111.783
1323857965702,111.422
1323858025702,111.740
1323858085702,112.020
1323858145702,111.885
1323858205702,111.642
1323858265702,111.575
1323858325702,111.332
1323858385702,111.130
1323858445702,111.709
1323858505702,111.456
1323858565702,111.452
1323858625702,111.929
1323858685702,112.099
1323858745702,112.123
1323858805702,111.277
1323858865702,112.357
1323858925702,112.020
1323858985702,112.084
1323859045702,111.878
1323859105702,112.121
1323859165702,111.860
1323859225702,111.755
1323859285702,111.836
1323859345702,112.381
1323859405702,111.801
1323859465702,112.324
1323859525702,111.616
1323859585702,111.497
1323859645702,111.684
1323859705702,111.780
1323859765702,112.351
1323859825702,111.453
1323859885702,111.723
1323859945702,111.825
1323860005702,111.714
1323860065702,111.842
1323860125702,111.786
1323860185702,111.485
1323860245702,111.710
1323860305702,111.577
1323860365702,112.070
1323860425714,111.362
1323860485714,111.575
1323860545714,111.313
1323860605714,111.628
1323860665714,111.898
1323860725714,111.353
1323860785714,111.667
1323860845714,111.725
1323860905714,111.472
1323860965714,111.393
1323861025714,111.736
1323861085714,111.867
1323861145714,111.866
1323861205714,111.427
1323861265714,111.296
1323861325714,111.967
1323861385714,111.612
1323861445714,111.490
1323861505714,111.573
1323861565714,112.045
1323861625714,111.903
1323861685714,111.360
1323861745714,111.981
1323861805714,112.012
1323861865714,112.117
1323861925714,111.549
1323861985714,112.139
1323862045714,111.732
1323862105714,111.382
1323862165714,111.983
1323862225714,111.939
1323862285714,111.554
1323862345714,111.804
1323862405714,112.023
1323862465714,113.990
1323862525714,111.856
1323862585714,111.858
1323862645714,112.396
1323862705714,111.806
1323862765714,111.422
1323862825714,111.759
1323862885714,111.676
1323862945714,112.311
1323863005714,111.679
1323863065714,112.436
1323863125714,111.986
1323863185714,111.867
1323863245714,111.696
1323863305714,112.215
1323863365714,111.623
1323863425714,111.768
1323863485714,111.752
1323863545714,111.319
1323863605714,112.044
1323863665714,111.561
1323863725714,111.529
1323863785714,110.975
1323863845714,111.752
1323863905714,111.515
1323863965714,111.511
1323864025725,111.229
1323864085725,112.018
1323864145725,111.485
1323864205725,111.687
1323864265725,111.862
1323864325725,110.953
1323864385725,111.382
1323864445725,111.620
1323864505725,111.708
1323864565725,111.483
1323864625725,111.425
1323864685725,111.656
1323864745725,111.626
1323864805725,111.502
1323864865725,111.623
1323864925725,111.765
1323864985725,111.591
1323865045725,111.642
1323865105725,111.355
1323865165725,111.501
1323865225725,111.774
1323865285725,111.409
1323865345725,111.347
1323865405725,111.449
1323865465725,111.426
1323865525725,111.021
1323865585725,111.281
1323865645725,110.929
1323865705725,111.481
1323865765725,111.338
1323865825725,111.762
1323865885725,110.904
1323865945725,111.216
1323866005725,110.859
1323866065725,111.491
1323866125725,111.276
1323866185725,110.895
1323866245725,111.047
1323866305725,111.302
1323866365725,110.999
1323866425725,110.936
1323866485725,111.031
1323866545725,111.057
1323866605725,110.871
1323866665725,110.800
1323866725725,111.113
1323866785725,110.851
1323866845725,110.945
1323866905725,111.021
1323866965725,110.931
1323867025725,111.062
1323867085725,110.786
1323867145725,111.621
1323867205725,111.063
1323867265725,111.187
1323867325725,110.911
1323867385725,111.615
1323867445725,110.902
1323867505725,111.400
1323867565725,111.051
1323867625737,111.070
1323867685737,110.453
1323867745737,111.183
1323867805737,111.433
1323867865737,111.200
1323867925737,111.390
1323867985737,111.188
1323868045737,110.484
1323868105737,111.384
1323868165737,111.355
1323868225737,111.384
1323868285737,110.774
1323868345737,111.059
1323868405737,111.140
1323868465737,111.201
1323868525737,111.423
1323868585737,111.145
1323868645737,110.973
1323868705737,111.235
1323868765737,111.295
1323868825737,111.217
1323868885737,111.485
1323868945737,110.818
1323869005737,110.978
1323869065737,111.101
1323869125737,111.226
1323869185737,110.954
1323869245737,110.841
1323869305737,111.500
1323869365737,111.457
1323869425737,110.712
1323869485737,111.480
1323869545737,111.509
1323869605737,110.683
1323869665737,110.976
1323869725737,111.109
1323869785737,110.851
1323869845737,111.222
1323869905737,110.929
1323869965737,110.886
1323870025737,110.562
1323870085737,110.672
1323870145737,110.838
1323870205737,111.030
1323870265737,110.999
1323870325737,110.905
1323870385737,111.390
1323870445737,110.710
1323870505737,111.084
1323870565737,110.873
1323870625737,110.844
1323870685737,111.319
1323870745737,110.776
1323870805737,111.009
1323870865737,110.682
1323870925737,111.255
1323870985737,111.190
1323871045737,110.818
1323871105737,111.541
1323871165737,111.596
1323871225749,111.156
1323871285749,111.565
1323871345749,111.255
1323871405749,111.381
1323871465749,111.170
1323871525749,111.224
1323871585749,111.187
1323871645749,111.502
1323871705749,111.166
1323871765749,111.602
1323871825749,111.809
1323871885749,111.181
1323871945749,111.204
1323872005749,111.500
1323872065749,111.767
1323872125749,111.037
1323872185749,111.704
1323872245749,111.067
1323872305749,112.044
1323872365749,111.504
1323872425749,111.678
1323872485749,111.142
1323872545749,111.314
1323872605749,112.005
1323872665749,111.128
1323872725749,111.735
1323872785749,111.439
1323872845749,111.369
1323872905749,111.647
1323872965749,111.616
1323873025749,111.815
1323873085749,111.237
1323873145749,111.084
1323873205749,111.276
1323873265749,111.652
1323873325749,111.847
1323873385749,111.504
1323873445749,111.517
1323873505749,111.778
1323873565749,111.579
1323873625749,111.662
1323873685749,111.731
1323873745749,112.030
1323873805749,111.372
1323873865749,112.107
1323873925749,111.538
1323873985749,111.574
1323874045749,111.063
1323874105749,111.515
1323874165749,111.521
1323874225749,110.963
1323874285749,111.209
1323874345749,111.557
1323874405749,111.747
1323874465749,111.775
1323874525749,111.586
1323874585749,111.759
1323874645749,111.053
1323874705749,111.813
1323874765749,111.707
1323874825760,111.742
1323874885760,111.491
1323874945760,111.402
1323875005760,111.481
1323875065760,111.040
1323875125760,111.338
1323875185760,110.876
1323875245760,110.980
1323875305760,111.345
1323875365760,111.469
1323875425760,111.415
1323875485760,111.062
1323875545760,111.255
1323875605760,110.964
1323875665760,111.543
1323875725760,111.043
1323875785760,111.307
1323875845760,111.479
1323875905760,110.955
1323875965760,110.677
1323876025760,111.127
1323876085760,111.087
1323876145760,111.088
1323876205760,110.564
1323876265760,111.137
1323876325760,111.245
1323876385760,111.246
1323876445760,111.134
1323876505760,110.687
1323876565760,111.074
1323876625760,111.314
1323876685760,111.152
1323876745760,111.322
1323876805760,111.131
1323876865760,110.592
1323876925760,111.251
1323876985760,110.789
1323877045760,110.968
1323877105760,111.255
1323877165760,111.251
1323877225760,111.214
1323877285760,111.181
1323877345760,110.987
1323877405760,110.826
1323877465760,110.680
1323877525760,111.061
1323877585760,110.666
1323877645760,110.771
1323877705760,110.855
1323877765760,110.358
1323877825760,111.362
1323877885760,110.555
1323877945760,110.773
1323878005760,111.188
1323878065760,110.857
1323878125760,110.640
1323878185760,111.054
1323878245760,111.093
1323878305760,111.189
1323878365760,110.522
1323878425772,110.960
1323878485772,111.045
1323878545772,110.779
1323878605772,111.344
1323878665772,110.989
1323878725772,110.938
1323878785772,110.943
1323878845772,111.231
1323878905772,110.821
1323878965772,111.054
1323879025772,110.555
1323879085772,111.053
1323879145772,110.520
1323879205772,110.565
1323879265772,111.191
1323879325772,110.899
1323879385772,111.435
1323879445772,111.369
1323879505772,110.948
1323879565772,110.546
1323879625772,110.852
1323879685772,111.027
1323879745772,110.904
1323879805772,111.518
1323879865772,111.191
1323879925772,111.269
1323879985772,111.390
1323880045772,110.813
1323880105772,111.481
1323880165772,110.680
1323880225772,111.133
1323880285772,111.282
1323880345772,110.826
1323880405772,111.335
1323880465772,111.875
1323880525772,111.445
1323880585772,111.487
1323880645772,111.586
1323880705772,111.277
1323880765772,111.089
1323880825772,111.805
1323880885772,111.502
1323880945772,111.718
1323881005772,112.158
1323881065772,111.592
1323881125772,111.360
1323881185772,111.830
1323881245772,111.254
1323881305772,111.558
1323881365772,111.849
1323881425772,111.368
1323881485772,111.675
1323881545772,111.902
1323881605772,111.429
1323881665772,111.554
1323881725772,112.178
1323881785772,111.953
1323881845772,112.081
1323881905772,111.861
1323881965772,111.966
1323882025783,111.541
1323882085783,111.855
1323882145783,111.404
1323882205783,112.814
1323882265783,112.321
1323882325783,111.734
1323882385783,111.515
1323882445783,111.781
1323882505783,111.611
1323882565783,111.654
1323882625783,111.533
1323882685783,111.903
1323882745783,111.781
1323882805783,111.406
1323882865783,112.075
1323882925783,111.372
1323882985783,112.010
1323883045783,111.844
1323883105783,111.923
1323883165783,111.865
1323883225783,111.669
1323883285783,111.363
1323883345783,111.582
1323883405783,111.520
1323883465783,111.579
1323883525783,111.733
1323883585783,111.286
1323883645783,111.584
1323883705783,111.743
1323883765783,111.833
1323883825783,111.414
1323883885783,111.424
1323883945783,111.537
1323884005783,111.863
1323884065783,111.559
1323884125783,112.016
1323884185783,111.906
1323884245783,111.253
1323884305783,111.954
1323884365783,111.313
1323884425783,111.493
1323884485783,111.826
1323884545783,111.512
1323884605783,111.700
1323884665783,111.270
1323884725783,110.964
1323884785783,110.841
1323884845783,111.693
1323884905783,111.502
1323884965783,111.579
1323885025783,111.801
1323885085783,111.753
1323885145783,110.709
1323885205783,111.508
1323885265783,111.463
1323885325783,111.151
1323885385783,111.162
1323885445783,111.613
1323885505783,112.125
1323885565783,111.196
1323885625794,111.250
1323885685794,111.267
1323885745794,111.164
1323885805794,111.220
1323885865794,111.264
1323885925794,111.165
1323885985794,110.931
1323886045794,111.008
1323886105794,111.026
1323886165794,111.350
1323886225794,111.332
1323886285794,111.254
1323886345794,111.223
1323886405794,111.204
1323886465794,111.347
1323886525794,111.413
1323886585794,111.169
1323886645794,112.234